Regional Weather Roundup
Issued by NWS

Home | Current Version | Previous Version | Graphics & Text | Print | Product List | Glossary On
Versions: 1 2 3 4 5 6 7 8 9 10 11 12 13 14 15 16 17 18 19 20 21 22 23 24 25 26 27 28 29 30 31 32 33 34 35 36 37 38 39 40 41 42 43 44 45 46 47 48 49 50
000
ASUS43 KLSX 220959
RWRMO

WEATHER SUMMARY FOR MISSOURI
NATIONAL WEATHER SERVICE SPRINGFIELD MO
500 AM CDT MON SEP 22 2014

NOTE: "FAIR" INDICATES FEW OR NO CLOUDS BELOW 12,000 FEET WITH NO
       SIGNIFICANT WEATHER AND/OR OBSTRUCTIONS TO VISIBILITY.
       CURRENT SKY AND/OR WEATHER CONDITIONS ARE NOT AVAILABLE FOR
       CHILLICOTHE AND FARMINGTON.

MOZ001>031-035>038-043-044-053-054-221100-
...NORTHERN AND WESTERN MISSOURI...

CITY           SKY/WX    TMP DP  RH WIND       PRES   REMARKS
KANSAS CTY INT CLEAR     51  48  89 NE5       30.29R
KANSAS C DTWN  CLEAR     54  51  90 NW3       30.28R
LEE`S SUMMIT   CLEAR     53  49  86 N3        30.28R
ST JOSEPH      CLEAR     45  44  97 CALM      30.30R
KIRKSVILLE     CLEAR     49  46  90 N3        30.27R

$$
MOZ066>068-077>081-088>096-101>105-221100-
...SOUTHWEST MISSOURI...

CITY           SKY/WX    TMP DP  RH WIND       PRES   REMARKS
SPRINGFIELD    CLEAR     50  47  89 CALM      30.24R
JOPLIN         CLEAR     52  49  89 NE5       30.26R

$$
MOZ032>034-039>042-045>050-055>058-069>072-221100-
...CENTRAL MISSOURI...

CITY           SKY/WX    TMP DP  RH WIND       PRES   REMARKS
COLUMBIA       CLEAR     50  48  93 NW6       30.25R
JEFFERSON CITY CLEAR     51  49  92 NW6       30.25R
ROLLA          CLEAR     48  45  89 NW3       30.22R
SEDALIA        CLEAR     51  48  89 NW5       30.26R
OSAGE BEACH    CLEAR     48  45  87 CALM      30.25R

$$
MOZ051-052-059>065-221100-
...EAST CENTRAL MISSOURI...

CITY           SKY/WX    TMP DP  RH WIND       PRES   REMARKS
ST LOUIS INTL  CLEAR     55  49  80 NW3       30.22R
SPIRIT OF STL  CLEAR     51  48  89 CALM      30.21R
ST CHARLES     CLEAR     54  49  83 N5        30.21R

$$
MOZ072>076-082>087-097>100-106>115-221100-
...SOUTH CENTRAL AND SOUTHEAST MISSOURI...

CITY           SKY/WX    TMP DP  RH WIND       PRES   REMARKS
CAPE GIRARDEAU CLEAR     50  48  93 CALM      30.18R
FARMINGTON     CLEAR     52  48  87 CALM      30.22R
POPLAR BLUFF   CLEAR     53  49  86 NW5       30.19R
WEST PLAINS    CLEAR     52  47  83 N5        30.24R

$$



USA.gov is the U.S. government's official web portal to all federal, state and local government web resources and services.